Volver al catálogo

COSMOS 374 DEB

ActivoUNKNOWN
NORAD 4616·DEBRIS·🇷🇺 Russia

Lanzado Oct 23, 1970 desde Baikonur Cosmodrome

Loading…

Próximos Pases (próximas 24 horas)

TLE

ActualizadoSource: Space-Track

Época: Sep 14, 2026, 07:19 UTC

1 04616U 70089C   26257.30506119  .00000191  00000-0  16796-3 0  9991
2 04616  62.7969   6.1834 0984713  97.0574 274.3264 12.73660675555426

Sigue COSMOS 374 DEB en tiempo real con AllMySat

Download on the App Store